Other Public Products
Issued by NWS Charleston, SC

Current Version | Previous Version | Graphics & Text | Print | Product List | Glossary On
Versions: 1 2 3 4 5 6 7 8 9 10 11 12 13 14 15 16 17 18 19 20 21 22 23 24 25 26 27 28 29 30 31 32 33 34 35 36 37 38 39 40 41 42 43 44 45 46 47 48 49 50
000
FPUS82 KCHS 241527
OPUCHS

TEST...KCHS/KSAV Gateway Observations...TEST
National Weather Service Charleston SC
1100 AM EDT MON JUL 24 2017

NOTE: "fair" indicates few or no clouds below 12,000 feet with no
significant weather and/or obstructions to visibility.

SCZ050-WAZ558-NCZ071-TXZ119-213-PAZ071-DCZ001-FLZ074-172-MI076-
NYZ176-178-MAZ016-IL014-TNZ027-NJZ106-GAZ044-MD014-241600-

...Gateway Observations for Charleston International...

CITY           SKY/WX    TMP DP  RH WIND       PRES   REMARKS
Chas Airport   LGT RAIN  77  74  90 W10       30.00S FOG
Seattle        SUNNY     64  53  67 N8        30.06S
Charlotte      PTSUNNY   83  70  64 VRB3      29.98R
Dallas DFW     CLOUDY    80  75  84 E3        29.99R
Dallas Love    CLOUDY    77  72  84 NE5       30.00R
Philladelphia  PTSUNNY   80  69  69 NW9G17    29.77R
Wash National  MOSUNNY   85  69  58 NW9       29.83S
Baltimore      MOSUNNY   83  70  64 NW7       29.81S
Miami          PTSUNNY   91  74  57 E5        30.10R HX 100
Detroit        CLOUDY    69  58  67 N12       29.93R
Newark         LGT RAIN  66  65  96 N21G28    29.78R
Laguardia      HVY RAIN  65  63  93 NE14G23   29.78R FOG
J F K          HVY RAIN  67  67 100 N22       29.77R FOG
Boston Logan   LGT RAIN  61  55  81 E21       29.95R
Ft. Lauderdale MOSUNNY   88  76  67 SE6       30.09S HX  99
Chicago O`Hare PTSUNNY   71  57  61 NE15G22   30.02R
Chicago Midway PTSUNNY   72  59  63 N16       30.01R
Houston Bush   CLOUDY    86  75  69 SW6       30.01R HX  95
Houston Hobby  CLOUDY    88  75  65 SW13      30.00S HX  97
Nashville      PTSUNNY   83  69  62 CALM      29.98S
Atlanta        MOSUNNY   85  74  69 W8        30.00R HX  92

$$

GAZ044-118-TXZ119-213-NCZ071-DCZ001-MDZ014-506-PAZ021-071-NJZ106-
NYZ176-178-MAZ106-OHZ011-021-055-MIZ076-KYZ091-ILZ014-INZ047-
MNZ060-ONZ431-241600-

...Gateway Observations for Savannah International...

CITY           SKY/WX    TMP DP  RH WIND       PRES   REMARKS
Savannah Arpt  CLOUDY    83  74  74 SW6       30.01F
Atlanta        MOSUNNY   85  74  69 W8        30.00R HX  92
Charlotte      PTSUNNY   83  70  64 VRB3      29.98R
Dallas DFW     CLOUDY    80  75  84 E3        29.99R
Houston Bush   CLOUDY    86  75  69 SW6       30.01R HX  95
Wash National  MOSUNNY   85  69  58 NW9       29.83S
Wash Dulles    MOSUNNY   83  68  60 N8        29.84R
Baltimore      MOSUNNY   83  70  64 NW7       29.81S
Philadelphia   PTSUNNY   80  69  69 NW9G17    29.77R
Newark         LGT RAIN  66  65  96 N21G28    29.78R
Laguardia      HVY RAIN  65  63  93 NE14G23   29.78R FOG
J F K          HVY RAIN  67  67 100 N22       29.77R FOG
Boston         LGT RAIN  61  55  81 E21       29.95R
Pittsburg      PTSUNNY   73  68  84 SW8       29.88R
Akron          PTSUNNY   77  66  68 NW10      29.89R
Cleveland      CLOUDY    73  63  70 N14       29.91R
Cincinnati     MOSUNNY   80  72  76 NW7       29.93S
Columbus       MOSUNNY   76  70  81 NW9       29.90S
Detroit        CLOUDY    69  58  67 N12       29.93R
Chicago O`Hare PTSUNNY   71  57  61 NE15G22   30.02R
Minneapolis    MOSUNNY   69  58  67 SE6       30.07F
Indianapolis   MOSUNNY   76  66  71 N9        29.96R
Toronto Canada CLOUDY    70  59  68 E8        29.76S

$$




USA.gov is the U.S. government's official web portal to all federal, state and local government web resources and services.